Time,TemperatureF,DewpointF,PressureIn,WindDirection,WindDirectionDegrees,WindSpeedMPH,WindSpeedGustMPH,Humidity,HourlyPrecipIn,Conditions,Clouds,dailyrainin,SoftwareType,DateUTC
2013-09-02 00:00:00,67.6,53.2,29.91,SSW,198,0.0,0.0,60,0.00,,---,0.00,VWS V14.00,2013-09-02 06:00:00,
2013-09-02 00:06:00,67.4,53.0,29.90,SSW,198,0.0,0.0,60,0.00,,---,0.00,VWS V14.00,2013-09-02 06:06:00,
2013-09-02 00:12:00,67.5,53.1,29.90,SSW,202,1.0,2.0,60,0.00,,---,0.00,VWS V14.00,2013-09-02 06:12:00,
2013-09-02 00:17:00,67.7,53.3,29.90,SSW,198,3.0,4.0,60,0.00,,---,0.00,VWS V14.00,2013-09-02 06:17:00,
2013-09-02 00:22:00,67.8,53.4,29.90,SSW,198,1.0,2.0,60,0.00,,---,0.00,VWS V14.00,2013-09-02 06:22:00,
2013-09-02 00:27:00,67.8,53.4,29.89,SSW,198,0.0,0.0,60,0.00,,---,0.00,VWS V14.00,2013-09-02 06:27:00,
2013-09-02 00:32:00,67.6,53.2,29.89,SSW,198,0.0,0.0,60,0.00,,---,0.00,VWS V14.00,2013-09-02 06:32:00,
2013-09-02 00:37:00,67.5,53.6,29.90,SSW,198,0.0,0.0,61,0.00,,---,0.00,VWS V14.00,2013-09-02 06:37:00,
2013-09-02 00:42:00,67.4,53.5,29.89,SSW,198,0.0,0.0,61,0.00,,---,0.00,VWS V14.00,2013-09-02 06:42:00,
2013-09-02 00:47:00,67.2,53.3,29.89,SSW,198,0.0,0.0,61,0.00,,---,0.00,VWS V14.00,2013-09-02 06:47:00,
2013-09-02 00:52:00,67.1,53.2,29.89,SSW,198,0.0,0.0,61,0.00,,---,0.00,VWS V14.00,2013-09-02 06:52:00,
2013-09-02 00:57:00,67.0,53.1,29.89,SSW,198,0.0,0.0,61,0.00,,---,0.00,VWS V14.00,2013-09-02 06:57:00,
2013-09-02 01:02:00,66.8,52.9,29.90,SSW,198,0.0,0.0,61,0.00,,---,0.00,VWS V14.00,2013-09-02 07:02:00,
2013-09-02 01:07:00,66.6,53.2,29.90,SSW,198,0.0,0.0,62,0.00,,---,0.00,VWS V14.00,2013-09-02 07:07:00,
2013-09-02 01:12:00,66.3,53.3,29.90,SSW,198,0.0,0.0,63,0.00,,---,0.00,VWS V14.00,2013-09-02 07:12:00,
2013-09-02 01:17:00,66.1,53.2,29.90,SSW,198,0.0,0.0,63,0.00,,---,0.00,VWS V14.00,2013-09-02 07:17:00,
2013-09-02 01:22:00,65.8,53.3,29.90,SSW,198,0.0,0.0,64,0.00,,---,0.00,VWS V14.00,2013-09-02 07:22:00,
2013-09-02 01:27:00,65.6,53.1,29.90,SSW,198,0.0,0.0,64,0.00,,---,0.00,VWS V14.00,2013-09-02 07:27:00,
2013-09-02 01:32:00,65.5,53.4,29.90,SSW,198,0.0,0.0,65,0.00,,---,0.00,VWS V14.00,2013-09-02 07:32:00,
2013-09-02 01:37:00,65.4,53.3,29.91,SSW,198,0.0,1.0,65,0.00,,---,0.00,VWS V14.00,2013-09-02 07:37:00,
2013-09-02 01:42:00,65.4,53.3,29.91,SSW,197,0.0,0.0,65,0.00,,---,0.00,VWS V14.00,2013-09-02 07:42:00,
2013-09-02 01:47:00,65.3,53.2,29.91,SSW,197,0.0,0.0,65,0.00,,---,0.00,VWS V14.00,2013-09-02 07:47:00,
2013-09-02 01:52:00,65.3,53.2,29.91,SSW,196,0.0,0.0,65,0.00,,---,0.00,VWS V14.00,2013-09-02 07:52:00,
2013-09-02 01:57:00,65.3,53.2,29.91,SSW,197,0.0,0.0,65,0.00,,---,0.00,VWS V14.00,2013-09-02 07:57:00,
2013-09-02 02:02:00,65.3,53.2,29.89,SSW,197,0.0,1.0,65,0.00,,---,0.00,VWS V14.00,2013-09-02 08:02:00,
2013-09-02 02:07:00,65.2,53.2,29.89,SSW,196,0.0,0.0,65,0.00,,---,0.00,VWS V14.00,2013-09-02 08:07:00,
2013-09-02 02:12:00,65.1,53.5,29.89,SSW,196,0.0,0.0,66,0.00,,---,0.00,VWS V14.00,2013-09-02 08:12:00,
2013-09-02 02:17:00,65.0,53.4,29.89,SSW,197,0.0,0.0,66,0.00,,---,0.00,VWS V14.00,2013-09-02 08:17:00,
2013-09-02 02:22:00,65.0,53.4,29.89,SSW,197,0.0,0.0,66,0.00,,---,0.00,VWS V14.00,2013-09-02 08:22:00,
2013-09-02 02:27:00,64.9,53.3,29.89,SSW,197,0.0,0.0,66,0.00,,---,0.00,VWS V14.00,2013-09-02 08:27:00,
2013-09-02 02:32:00,64.8,53.2,29.89,SSW,196,0.0,0.0,66,0.00,,---,0.00,VWS V14.00,2013-09-02 08:32:00,
2013-09-02 02:37:00,64.7,53.1,29.89,SSW,197,0.0,0.0,66,0.00,,---,0.00,VWS V14.00,2013-09-02 08:37:00,
2013-09-02 02:42:00,64.5,52.9,29.89,SSW,196,0.0,0.0,66,0.00,,---,0.00,VWS V14.00,2013-09-02 08:42:00,
2013-09-02 02:47:00,64.4,52.8,29.90,SSW,196,0.0,0.0,66,0.00,,---,0.00,VWS V14.00,2013-09-02 08:47:00,
2013-09-02 02:52:00,64.2,52.6,29.90,SSW,197,0.0,0.0,66,0.00,,---,0.00,VWS V14.00,2013-09-02 08:52:00,
2013-09-02 02:57:00,64.0,52.8,29.90,SSW,197,0.0,0.0,67,0.00,,---,0.00,VWS V14.00,2013-09-02 08:57:00,
2013-09-02 03:02:00,63.8,53.0,29.88,SSW,197,0.0,0.0,68,0.00,,---,0.00,VWS V14.00,2013-09-02 09:02:00,
2013-09-02 03:07:00,63.4,53.5,29.87,SSW,196,0.0,0.0,70,0.00,,---,0.00,VWS V14.00,2013-09-02 09:07:00,
2013-09-02 03:12:00,63.2,53.3,29.88,SSW,197,0.0,0.0,70,0.00,,---,0.00,VWS V14.00,2013-09-02 09:12:00,
2013-09-02 03:17:00,63.0,53.1,29.88,SSW,197,0.0,0.0,70,0.00,,---,0.00,VWS V14.00,2013-09-02 09:17:00,
2013-09-02 03:22:00,62.9,53.0,29.88,SSW,197,0.0,0.0,70,0.00,,---,0.00,VWS V14.00,2013-09-02 09:22:00,
2013-09-02 03:27:00,62.6,53.1,29.87,SSW,196,0.0,0.0,71,0.00,,---,0.00,VWS V14.00,2013-09-02 09:27:00,
2013-09-02 03:32:00,62.4,52.9,29.88,SSW,197,0.0,0.0,71,0.00,,---,0.00,VWS V14.00,2013-09-02 09:32:00,
2013-09-02 03:37:00,62.2,52.7,29.88,SSW,197,0.0,0.0,71,0.00,,---,0.00,VWS V14.00,2013-09-02 09:37:00,
2013-09-02 03:42:00,62.0,52.9,29.89,SSW,196,0.0,0.0,72,0.00,,---,0.00,VWS V14.00,2013-09-02 09:42:00,
2013-09-02 03:47:00,61.8,52.7,29.88,SSW,197,0.0,0.0,72,0.00,,---,0.00,VWS V14.00,2013-09-02 09:47:00,
2013-09-02 03:52:00,61.7,52.6,29.88,SSW,197,0.0,0.0,72,0.00,,---,0.00,VWS V14.00,2013-09-02 09:52:00,
2013-09-02 03:57:00,61.5,52.8,29.88,SSW,197,0.0,0.0,73,0.00,,---,0.00,VWS V14.00,2013-09-02 09:57:00,
2013-09-02 04:02:00,61.3,52.6,29.89,SSW,196,0.0,0.0,73,0.00,,---,0.00,VWS V14.00,2013-09-02 10:02:00,
2013-09-02 04:07:00,61.1,52.4,29.90,SSW,197,0.0,0.0,73,0.00,,---,0.00,VWS V14.00,2013-09-02 10:07:00,
2013-09-02 04:12:00,61.0,52.7,29.89,SSW,197,0.0,0.0,74,0.00,,---,0.00,VWS V14.00,2013-09-02 10:12:00,
2013-09-02 04:17:00,60.8,52.5,29.89,SSW,196,0.0,0.0,74,0.00,,---,0.00,VWS V14.00,2013-09-02 10:17:00,
2013-09-02 04:22:00,60.6,52.3,29.89,SSW,196,0.0,0.0,74,0.00,,---,0.00,VWS V14.00,2013-09-02 10:22:00,
2013-09-02 04:27:00,60.4,52.5,29.89,SSW,197,0.0,0.0,75,0.00,,---,0.00,VWS V14.00,2013-09-02 10:27:00,
2013-09-02 04:33:00,60.3,52.3,29.89,SSW,197,0.0,0.0,75,0.00,,---,0.00,VWS V14.00,2013-09-02 10:33:00,
2013-09-02 04:38:00,60.1,52.5,29.89,SSW,197,0.0,0.0,76,0.00,,---,0.00,VWS V14.00,2013-09-02 10:38:00,
2013-09-02 04:43:00,59.9,52.3,29.89,SSW,197,0.0,0.0,76,0.00,,---,0.00,VWS V14.00,2013-09-02 10:43:00,
2013-09-02 04:48:00,59.8,52.2,29.89,SSW,196,0.0,0.0,76,0.00,,---,0.00,VWS V14.00,2013-09-02 10:48:00,
2013-09-02 04:53:00,59.6,52.0,29.89,SSW,197,0.0,0.0,76,0.00,,---,0.00,VWS V14.00,2013-09-02 10:53:00,
2013-09-02 04:58:00,59.4,52.2,29.90,SSW,196,0.0,0.0,77,0.00,,---,0.00,VWS V14.00,2013-09-02 10:58:00,
2013-09-02 05:03:00,59.0,52.2,29.91,SSW,196,0.0,0.0,78,0.00,,---,0.00,VWS V14.00,2013-09-02 11:03:00,
2013-09-02 05:08:00,59.0,52.2,29.92,SSW,197,0.0,0.0,78,0.00,,---,0.00,VWS V14.00,2013-09-02 11:08:00,
2013-09-02 05:13:00,59.0,52.5,29.91,SSW,197,0.0,0.0,79,0.00,,---,0.00,VWS V14.00,2013-09-02 11:13:00,
2013-09-02 05:18:00,59.0,52.5,29.92,SSW,197,0.0,0.0,79,0.00,,---,0.00,VWS V14.00,2013-09-02 11:18:00,
2013-09-02 05:23:00,58.9,52.8,29.91,SSW,196,0.0,0.0,80,0.00,,---,0.00,VWS V14.00,2013-09-02 11:23:00,
2013-09-02 05:28:00,58.7,52.6,29.91,SSW,197,0.0,0.0,80,0.00,,---,0.00,VWS V14.00,2013-09-02 11:28:00,
2013-09-02 05:33:00,58.6,52.5,29.91,SSW,197,0.0,0.0,80,0.00,,---,0.00,VWS V14.00,2013-09-02 11:33:00,
2013-09-02 05:38:00,58.5,52.4,29.91,SSW,196,0.0,0.0,80,0.00,,---,0.00,VWS V14.00,2013-09-02 11:38:00,
2013-09-02 05:43:00,58.5,52.4,29.91,SSW,197,0.0,0.0,80,0.00,,---,0.00,VWS V14.00,2013-09-02 11:43:00,
2013-09-02 05:48:00,58.4,52.3,29.92,SSW,197,0.0,0.0,80,0.00,,---,0.00,VWS V14.00,2013-09-02 11:48:00,
2013-09-02 05:53:00,58.3,52.2,29.92,SSW,197,0.0,0.0,80,0.00,,---,0.00,VWS V14.00,2013-09-02 11:53:00,
2013-09-02 05:58:00,58.2,52.1,29.92,SSW,196,0.0,0.0,80,0.00,,---,0.00,VWS V14.00,2013-09-02 11:58:00,
2013-09-02 06:03:00,58.1,52.0,29.93,SSW,197,0.0,0.0,80,0.00,,---,0.00,VWS V14.00,2013-09-02 12:03:00,
2013-09-02 06:08:00,58.1,52.0,29.93,SSW,197,0.0,0.0,80,0.00,,---,0.00,VWS V14.00,2013-09-02 12:08:00,
2013-09-02 06:13:00,58.0,51.9,29.93,SSW,196,0.0,0.0,80,0.00,,---,0.00,VWS V14.00,2013-09-02 12:13:00,
2013-09-02 06:18:00,57.9,51.8,29.93,SSW,196,0.0,0.0,80,0.00,,---,0.00,VWS V14.00,2013-09-02 12:18:00,
2013-09-02 06:23:00,57.8,51.7,29.93,SSW,197,0.0,0.0,80,0.00,,---,0.00,VWS V14.00,2013-09-02 12:23:00,
2013-09-02 06:28:00,57.8,52.0,29.93,SSW,197,0.0,0.0,81,0.00,,---,0.00,VWS V14.00,2013-09-02 12:28:00,
2013-09-02 06:33:00,57.7,51.9,29.93,SSW,197,0.0,0.0,81,0.00,,---,0.00,VWS V14.00,2013-09-02 12:33:00,
2013-09-02 06:38:00,57.6,51.8,29.93,SSW,197,0.0,0.0,81,0.00,,---,0.00,VWS V14.00,2013-09-02 12:38:00,
2013-09-02 06:43:00,57.5,51.7,29.93,SSW,197,0.0,0.0,81,0.00,,---,0.00,VWS V14.00,2013-09-02 12:43:00,
2013-09-02 06:48:00,57.5,51.7,29.94,SSW,196,0.0,0.0,81,0.00,,---,0.00,VWS V14.00,2013-09-02 12:48:00,
2013-09-02 06:53:00,57.5,51.7,29.94,SSW,196,0.0,0.0,81,0.00,,---,0.00,VWS V14.00,2013-09-02 12:53:00,
2013-09-02 06:58:00,57.5,51.7,29.94,SSW,197,0.0,0.0,81,0.00,,---,0.00,VWS V14.00,2013-09-02 12:58:00,
2013-09-02 07:03:00,57.5,52.1,29.95,SSW,197,0.0,0.0,82,0.00,,---,0.00,VWS V14.00,2013-09-02 13:03:00,
2013-09-02 07:08:00,57.5,52.1,29.95,SSW,197,0.0,0.0,82,0.00,,---,0.00,VWS V14.00,2013-09-02 13:08:00,
2013-09-02 07:13:00,57.6,52.2,29.95,SSW,196,0.0,0.0,82,0.00,,---,0.00,VWS V14.00,2013-09-02 13:13:00,
2013-09-02 07:18:00,57.6,52.2,29.96,SSW,197,0.0,0.0,82,0.00,,---,0.00,VWS V14.00,2013-09-02 13:18:00,
2013-09-02 07:23:00,57.7,52.6,29.95,SSW,197,0.0,0.0,83,0.00,,---,0.00,VWS V14.00,2013-09-02 13:23:00,
2013-09-02 07:28:00,57.7,52.6,29.96,SSW,197,0.0,0.0,83,0.00,,---,0.00,VWS V14.00,2013-09-02 13:28:00,
2013-09-02 07:33:00,57.9,52.8,29.96,SSW,197,0.0,0.0,83,0.00,,---,0.00,VWS V14.00,2013-09-02 13:33:00,
2013-09-02 07:38:00,58.1,53.0,29.96,SSW,197,0.0,0.0,83,0.00,,---,0.00,VWS V14.00,2013-09-02 13:38:00,
2013-09-02 07:43:00,58.1,53.0,29.96,SSW,197,0.0,0.0,83,0.00,,---,0.00,VWS V14.00,2013-09-02 13:43:00,
2013-09-02 07:48:00,58.5,53.7,29.97,SSW,196,0.0,0.0,84,0.00,,---,0.00,VWS V14.00,2013-09-02 13:48:00,
2013-09-02 07:53:00,59.0,54.2,29.95,SSW,197,0.0,0.0,84,0.00,,---,0.00,VWS V14.00,2013-09-02 13:53:00,
2013-09-02 07:58:00,59.5,54.7,29.95,SSW,197,0.0,0.0,84,0.00,,---,0.00,VWS V14.00,2013-09-02 13:58:00,
2013-09-02 08:03:00,60.2,55.3,29.97,SSW,197,0.0,0.0,84,0.00,,---,0.00,VWS V14.00,2013-09-02 14:03:00,
2013-09-02 08:08:00,61.0,55.8,29.95,SSW,196,0.0,0.0,83,0.00,,---,0.00,VWS V14.00,2013-09-02 14:08:00,
2013-09-02 08:13:00,62.6,56.3,29.95,SSW,197,0.0,0.0,80,0.00,,---,0.00,VWS V14.00,2013-09-02 14:13:00,
2013-09-02 08:18:00,64.2,56.1,29.93,SSW,195,0.0,0.0,75,0.00,,---,0.00,VWS V14.00,2013-09-02 14:18:00,
2013-09-02 08:23:00,65.4,56.5,29.92,ESE,106,0.0,0.0,73,0.00,,---,0.00,VWS V14.00,2013-09-02 14:23:00,
2013-09-02 08:28:00,65.8,56.2,29.93,ESE,106,0.0,0.0,71,0.00,,---,0.00,VWS V14.00,2013-09-02 14:28:00,
2013-09-02 08:33:00,66.9,56.8,29.91,ESE,107,0.0,0.0,70,0.00,,---,0.00,VWS V14.00,2013-09-02 14:33:00,
2013-09-02 08:38:00,67.5,57.0,29.92,ESE,107,0.0,1.0,69,0.00,,---,0.00,VWS V14.00,2013-09-02 14:38:00,
2013-09-02 08:43:00,68.5,57.1,29.90,ESE,106,0.0,0.0,67,0.00,,---,0.00,VWS V14.00,2013-09-02 14:43:00,
2013-09-02 08:48:00,68.7,56.9,29.91,ESE,107,1.0,1.0,66,0.00,,---,0.00,VWS V14.00,2013-09-02 14:48:00,
2013-09-02 08:53:00,69.2,57.8,29.90,ESE,107,0.0,0.0,67,0.00,,---,0.00,VWS V14.00,2013-09-02 14:53:00,
2013-09-02 08:58:00,69.1,56.8,29.90,ESE,106,2.0,2.0,65,0.00,,---,0.00,VWS V14.00,2013-09-02 14:58:00,
2013-09-02 09:03:00,68.9,57.9,29.91,ESE,106,0.0,0.0,68,0.00,,---,0.00,VWS V14.00,2013-09-02 15:03:00,
2013-09-02 09:08:00,69.6,56.9,29.91,ESE,107,0.0,0.0,64,0.00,,---,0.00,VWS V14.00,2013-09-02 15:08:00,
2013-09-02 09:13:00,69.8,57.9,29.91,ESE,107,0.0,0.0,66,0.00,,---,0.00,VWS V14.00,2013-09-02 15:13:00,
2013-09-02 09:18:00,70.5,57.8,29.90,ESE,107,0.0,0.0,64,0.00,,---,0.00,VWS V14.00,2013-09-02 15:18:00,
2013-09-02 09:23:00,71.1,57.0,29.90,ESE,106,0.0,1.0,61,0.00,,---,0.00,VWS V14.00,2013-09-02 15:23:00,
2013-09-02 09:28:00,71.8,57.6,29.90,ESE,107,0.0,0.0,61,0.00,,---,0.00,VWS V14.00,2013-09-02 15:28:00,
2013-09-02 09:33:00,71.6,56.5,29.89,ESE,106,0.0,2.0,59,0.00,,---,0.00,VWS V14.00,2013-09-02 15:33:00,
2013-09-02 09:38:00,71.8,57.2,29.89,ESE,106,0.0,0.0,60,0.00,,---,0.00,VWS V14.00,2013-09-02 15:38:00,
2013-09-02 09:43:00,72.0,56.9,29.89,ESE,106,0.0,1.0,59,0.00,,---,0.00,VWS V14.00,2013-09-02 15:43:00,
2013-09-02 09:48:00,71.9,57.7,29.89,ESE,106,0.0,0.0,61,0.00,,---,0.00,VWS V14.00,2013-09-02 15:48:00,
2013-09-02 09:53:00,72.4,57.3,29.89,ESE,106,0.0,0.0,59,0.00,,---,0.00,VWS V14.00,2013-09-02 15:53:00,
2013-09-02 09:58:00,71.5,56.4,29.89,ESE,106,0.0,1.0,59,0.00,,---,0.00,VWS V14.00,2013-09-02 15:58:00,
2013-09-02 10:03:00,71.0,56.4,29.91,ESE,106,0.0,1.0,60,0.00,,---,0.00,VWS V14.00,2013-09-02 16:03:00,
2013-09-02 10:08:00,71.3,56.2,29.91,ESE,106,0.0,1.0,59,0.00,,---,0.00,VWS V14.00,2013-09-02 16:08:00,
2013-09-02 10:13:00,73.0,57.4,29.89,ESE,106,0.0,0.0,58,0.00,,---,0.00,VWS V14.00,2013-09-02 16:13:00,
2013-09-02 10:18:00,74.0,56.8,29.89,ESE,106,1.0,1.0,55,0.00,,---,0.00,VWS V14.00,2013-09-02 16:18:00,
2013-09-02 10:23:00,74.3,57.6,29.89,ESE,106,0.0,0.0,56,0.00,,---,0.00,VWS V14.00,2013-09-02 16:23:00,
2013-09-02 10:28:00,74.1,57.4,29.88,ESE,105,0.0,0.0,56,0.00,,---,0.00,VWS V14.00,2013-09-02 16:28:00,
2013-09-02 10:33:00,74.2,57.5,29.88,ESE,105,0.0,1.0,56,0.00,,---,0.00,VWS V14.00,2013-09-02 16:33:00,
2013-09-02 10:38:00,74.8,57.6,29.88,ESE,105,0.0,3.0,55,0.00,,---,0.00,VWS V14.00,2013-09-02 16:38:00,
2013-09-02 10:43:00,74.6,56.9,29.87,ESE,105,0.0,1.0,54,0.00,,---,0.00,VWS V14.00,2013-09-02 16:43:00,
2013-09-02 10:48:00,74.8,58.1,29.87,ESE,105,0.0,0.0,56,0.00,,---,0.00,VWS V14.00,2013-09-02 16:48:00,
2013-09-02 10:53:00,75.0,57.2,29.87,ESE,105,0.0,0.0,54,0.00,,---,0.00,VWS V14.00,2013-09-02 16:53:00,
2013-09-02 10:58:00,75.8,57.5,29.87,ESE,105,0.0,1.0,53,0.00,,---,0.00,VWS V14.00,2013-09-02 16:58:00,
2013-09-02 11:03:00,76.4,58.5,29.87,ESE,103,0.0,0.0,54,0.00,,---,0.00,VWS V14.00,2013-09-02 17:03:00,
2013-09-02 11:08:00,76.3,58.5,29.87,ESE,103,0.0,0.0,54,0.00,,---,0.00,VWS V14.00,2013-09-02 17:08:00,
2013-09-02 11:13:00,76.1,57.8,29.87,South,188,4.0,5.0,53,0.00,,---,0.00,VWS V14.00,2013-09-02 17:13:00,
2013-09-02 11:18:00,76.1,57.8,29.87,South,183,0.0,2.0,53,0.00,,---,0.00,VWS V14.00,2013-09-02 17:18:00,
2013-09-02 11:23:00,76.5,57.6,29.86,West,275,0.0,1.0,52,0.00,,---,0.00,VWS V14.00,2013-09-02 17:23:00,
2013-09-02 11:28:00,76.7,57.2,29.86,NNW,343,0.0,1.0,51,0.00,,---,0.00,VWS V14.00,2013-09-02 17:28:00,
2013-09-02 11:33:00,76.9,57.4,29.86,NE,36,0.0,1.0,51,0.00,,---,0.00,VWS V14.00,2013-09-02 17:33:00,
2013-09-02 11:38:00,77.1,58.1,29.86,NE,46,1.0,3.0,52,0.00,,---,0.00,VWS V14.00,2013-09-02 17:38:00,
2013-09-02 11:43:00,77.2,57.1,29.87,NE,47,0.0,0.0,50,0.00,,---,0.00,VWS V14.00,2013-09-02 17:43:00,
2013-09-02 11:48:00,77.3,58.3,29.86,NE,46,0.0,0.0,52,0.00,,---,0.00,VWS V14.00,2013-09-02 17:48:00,
2013-09-02 11:53:00,77.5,57.4,29.86,NE,47,0.0,0.0,50,0.00,,---,0.00,VWS V14.00,2013-09-02 17:53:00,
2013-09-02 11:58:00,77.8,57.7,29.84,NE,47,0.0,0.0,50,0.00,,---,0.00,VWS V14.00,2013-09-02 17:58:00,
2013-09-02 12:03:00,78.5,57.8,29.84,NE,55,0.0,1.0,49,0.00,,---,0.00,VWS V14.00,2013-09-02 18:03:00,
2013-09-02 12:08:00,78.7,56.8,29.84,NE,55,0.0,0.0,47,0.00,,---,0.00,VWS V14.00,2013-09-02 18:08:00,
2013-09-02 12:13:00,79.1,57.8,29.84,ENE,64,0.0,1.0,48,0.00,,---,0.00,VWS V14.00,2013-09-02 18:13:00,
2013-09-02 12:18:00,79.6,57.0,29.83,NE,52,0.0,0.0,46,0.00,,---,0.00,VWS V14.00,2013-09-02 18:18:00,
2013-09-02 12:23:00,79.7,57.1,29.83,ENE,63,0.0,1.0,46,0.00,,---,0.00,VWS V14.00,2013-09-02 18:23:00,
2013-09-02 12:28:00,80.0,56.8,29.83,East,83,0.0,1.0,45,0.00,,---,0.00,VWS V14.00,2013-09-02 18:28:00,
2013-09-02 12:33:00,80.5,57.8,29.82,ENE,73,0.0,1.0,46,0.00,,---,0.00,VWS V14.00,2013-09-02 18:33:00,
2013-09-02 12:38:00,81.0,58.3,29.82,ESE,107,0.0,1.0,46,0.00,,---,0.00,VWS V14.00,2013-09-02 18:38:00,
2013-09-02 12:43:00,81.1,57.8,29.82,ESE,106,0.0,0.0,45,0.00,,---,0.00,VWS V14.00,2013-09-02 18:43:00,
2013-09-02 12:48:00,81.3,56.7,29.82,ESE,105,0.0,1.0,43,0.00,,---,0.00,VWS V14.00,2013-09-02 18:48:00,
2013-09-02 12:53:00,81.9,58.5,29.82,ESE,103,0.0,1.0,45,0.00,,---,0.00,VWS V14.00,2013-09-02 18:53:00,
2013-09-02 12:58:00,83.3,57.8,29.80,South,182,0.0,2.0,42,0.00,,---,0.00,VWS V14.00,2013-09-02 18:58:00,
2013-09-02 13:03:00,84.0,57.8,29.81,ESE,109,1.0,4.0,41,0.00,,---,0.00,VWS V14.00,2013-09-02 19:03:00,
2013-09-02 13:08:00,83.9,58.4,29.81,ESE,110,0.0,1.0,42,0.00,,---,0.00,VWS V14.00,2013-09-02 19:08:00,
2013-09-02 13:13:00,84.4,58.8,29.81,ENE,76,0.0,0.0,42,0.00,,---,0.00,VWS V14.00,2013-09-02 19:13:00,
2013-09-02 13:18:00,84.6,56.2,29.80,East,83,0.0,4.0,38,0.00,,---,0.00,VWS V14.00,2013-09-02 19:18:00,
2013-09-02 13:23:00,85.0,58.7,29.80,East,86,0.0,0.0,41,0.00,,---,0.00,VWS V14.00,2013-09-02 19:23:00,
2013-09-02 13:28:00,86.4,58.5,29.80,East,98,0.0,1.0,39,0.00,,---,0.00,VWS V14.00,2013-09-02 19:28:00,
2013-09-02 13:34:00,86.7,57.3,29.78,South,188,4.0,5.0,37,0.00,,---,0.00,VWS V14.00,2013-09-02 19:34:00,
2013-09-02 13:39:00,86.9,56.0,29.79,East,87,0.0,2.0,35,0.00,,---,0.00,VWS V14.00,2013-09-02 19:39:00,
2013-09-02 13:45:00,87.7,56.7,29.78,East,95,0.0,1.0,35,0.00,,---,0.00,VWS V14.00,2013-09-02 19:45:00,
2013-09-02 13:51:00,87.9,55.2,29.79,SE,126,0.0,1.0,33,0.00,,---,0.00,VWS V14.00,2013-09-02 19:51:00,
2013-09-02 13:57:00,87.7,58.2,29.78,ENE,65,0.0,0.0,37,0.00,,---,0.00,VWS V14.00,2013-09-02 19:57:00,
2013-09-02 14:02:00,87.5,54.0,29.79,ENE,66,1.0,2.0,32,0.00,,---,0.00,VWS V14.00,2013-09-02 20:02:00,
2013-09-02 14:07:00,87.4,57.2,29.79,NE,51,0.0,0.0,36,0.00,,---,0.00,VWS V14.00,2013-09-02 20:07:00,
2013-09-02 14:12:00,88.5,57.4,29.78,NE,51,0.0,0.0,35,0.00,,---,0.00,VWS V14.00,2013-09-02 20:12:00,
2013-09-02 14:17:00,88.8,55.2,29.77,South,175,3.0,3.0,32,0.00,,---,0.00,VWS V14.00,2013-09-02 20:17:00,
2013-09-02 14:22:00,88.7,55.1,29.78,SSW,198,0.0,1.0,32,0.00,,---,0.00,VWS V14.00,2013-09-02 20:22:00,
2013-09-02 14:27:00,87.6,53.3,29.78,SSW,208,2.0,3.0,31,0.00,,---,0.00,VWS V14.00,2013-09-02 20:27:00,
2013-09-02 14:32:00,86.8,52.6,29.78,SSW,203,0.0,1.0,31,0.00,,---,0.00,VWS V14.00,2013-09-02 20:32:00,
2013-09-02 14:37:00,86.4,53.9,29.78,SSW,203,0.0,0.0,33,0.00,,---,0.00,VWS V14.00,2013-09-02 20:37:00,
2013-09-02 14:42:00,85.2,52.0,29.79,SSW,203,0.0,2.0,32,0.00,,---,0.00,VWS V14.00,2013-09-02 20:42:00,
2013-09-02 14:47:00,85.3,55.3,29.79,SSW,203,0.0,1.0,36,0.00,,---,0.00,VWS V14.00,2013-09-02 20:47:00,
2013-09-02 14:53:00,85.0,56.6,29.78,SSW,203,0.0,2.0,38,0.00,,---,0.00,VWS V14.00,2013-09-02 20:53:00,
2013-09-02 14:58:00,85.0,58.0,29.78,SSW,203,0.0,0.0,40,0.00,,---,0.00,VWS V14.00,2013-09-02 20:58:00,
2013-09-02 15:04:00,86.6,56.5,29.78,SSW,192,0.0,1.0,36,0.00,,---,0.00,VWS V14.00,2013-09-02 21:04:00,
2013-09-02 15:09:00,86.1,56.0,29.78,SSW,197,0.0,1.0,36,0.00,,---,0.00,VWS V14.00,2013-09-02 21:09:00,
2013-09-02 15:14:00,85.2,58.2,29.78,South,186,0.0,0.0,40,0.00,,---,0.00,VWS V14.00,2013-09-02 21:14:00,
2013-09-02 15:19:00,84.8,55.7,29.78,South,182,0.0,4.0,37,0.00,,---,0.00,VWS V14.00,2013-09-02 21:19:00,
2013-09-02 15:24:00,85.0,58.7,29.78,South,182,0.0,0.0,41,0.00,,---,0.00,VWS V14.00,2013-09-02 21:24:00,
2013-09-02 15:29:00,85.3,57.6,29.77,South,174,0.0,0.0,39,0.00,,---,0.00,VWS V14.00,2013-09-02 21:29:00,
2013-09-02 15:34:00,85.1,58.8,29.77,South,174,0.0,0.0,41,0.00,,---,0.00,VWS V14.00,2013-09-02 21:34:00,
2013-09-02 15:39:00,84.4,57.5,29.77,South,179,3.0,4.0,40,0.00,,---,0.00,VWS V14.00,2013-09-02 21:39:00,
2013-09-02 15:44:00,84.3,58.1,29.78,South,179,0.0,0.0,41,0.00,,---,0.00,VWS V14.00,2013-09-02 21:44:00,
2013-09-02 15:49:00,83.8,56.2,29.79,South,179,0.0,1.0,39,0.00,,---,0.00,VWS V14.00,2013-09-02 21:49:00,
2013-09-02 15:54:00,82.9,54.7,29.79,South,178,0.0,1.0,38,0.00,,---,0.00,VWS V14.00,2013-09-02 21:54:00,
2013-09-02 15:59:00,83.2,57.8,29.78,South,177,0.0,0.0,42,0.00,,---,0.00,VWS V14.00,2013-09-02 21:59:00,
2013-09-02 16:04:00,83.0,55.5,29.79,South,177,0.0,0.0,39,0.00,,---,0.00,VWS V14.00,2013-09-02 22:04:00,
2013-09-02 16:09:00,82.7,56.6,29.79,South,177,0.0,0.0,41,0.00,,---,0.00,VWS V14.00,2013-09-02 22:09:00,
2013-09-02 16:14:00,82.1,57.4,29.79,South,176,0.0,0.0,43,0.00,,---,0.00,VWS V14.00,2013-09-02 22:14:00,
2013-09-02 16:19:00,82.7,56.6,29.79,South,177,0.0,1.0,41,0.00,,---,0.00,VWS V14.00,2013-09-02 22:19:00,
2013-09-02 16:24:00,83.4,56.6,29.79,South,178,1.0,1.0,40,0.00,,---,0.00,VWS V14.00,2013-09-02 22:24:00,
2013-09-02 16:29:00,83.7,55.4,29.79,South,188,0.0,0.0,38,0.00,,---,0.00,VWS V14.00,2013-09-02 22:29:00,
2013-09-02 16:34:00,83.6,56.8,29.79,South,186,0.0,0.0,40,0.00,,---,0.00,VWS V14.00,2013-09-02 22:34:00,
2013-09-02 16:39:00,83.5,58.0,29.78,South,186,0.0,0.0,42,0.00,,---,0.00,VWS V14.00,2013-09-02 22:39:00,
2013-09-02 16:44:00,83.5,58.7,29.78,South,186,0.0,0.0,43,0.00,,---,0.00,VWS V14.00,2013-09-02 22:44:00,
2013-09-02 16:49:00,85.6,57.1,29.77,South,187,0.0,0.0,38,0.00,,---,0.00,VWS V14.00,2013-09-02 22:49:00,
2013-09-02 16:54:00,86.3,58.5,29.77,South,187,0.0,0.0,39,0.00,,---,0.00,VWS V14.00,2013-09-02 22:54:00,
2013-09-02 16:59:00,85.8,56.5,29.77,South,187,0.0,0.0,37,0.00,,---,0.00,VWS V14.00,2013-09-02 22:59:00,
2013-09-02 17:04:00,85.9,55.1,29.76,South,187,0.0,0.0,35,0.00,,---,0.00,VWS V14.00,2013-09-02 23:04:00,
2013-09-02 17:09:00,85.7,55.7,29.77,South,187,0.0,0.0,36,0.00,,---,0.00,VWS V14.00,2013-09-02 23:09:00,
2013-09-02 17:14:00,85.9,57.4,29.76,South,188,0.0,0.0,38,0.00,,---,0.00,VWS V14.00,2013-09-02 23:14:00,
2013-09-02 17:19:00,86.0,56.7,29.76,South,188,0.0,0.0,37,0.00,,---,0.00,VWS V14.00,2013-09-02 23:19:00,
2013-09-02 17:24:00,84.5,54.6,29.77,South,188,0.0,0.0,36,0.00,,---,0.00,VWS V14.00,2013-09-02 23:24:00,
2013-09-02 17:29:00,83.5,55.2,29.77,South,187,0.0,0.0,38,0.00,,---,0.00,VWS V14.00,2013-09-02 23:29:00,
2013-09-02 17:34:00,84.2,58.0,29.77,South,188,0.0,0.0,41,0.00,,---,0.00,VWS V14.00,2013-09-02 23:34:00,
2013-09-02 17:39:00,83.8,55.5,29.78,South,187,1.0,1.0,38,0.00,,---,0.00,VWS V14.00,2013-09-02 23:39:00,
2013-09-02 17:44:00,84.6,54.7,29.78,SSW,205,0.0,2.0,36,0.00,,---,0.00,VWS V14.00,2013-09-02 23:44:00,
2013-09-02 17:49:00,85.1,55.9,29.79,SSW,205,0.0,0.0,37,0.00,,---,0.00,VWS V14.00,2013-09-02 23:49:00,
2013-09-02 17:54:00,85.0,55.1,29.79,SSW,210,1.0,1.0,36,0.00,,---,0.00,VWS V14.00,2013-09-02 23:54:00,
2013-09-02 17:59:00,85.1,55.9,29.79,SSW,208,0.0,1.0,37,0.00,,---,0.00,VWS V14.00,2013-09-02 23:59:00,
2013-09-02 18:04:00,85.1,55.9,29.78,SE,132,0.0,0.0,37,0.00,,---,0.00,VWS V14.00,2013-09-03 00:04:00,
2013-09-02 18:09:00,84.6,56.2,29.78,SE,132,0.0,0.0,38,0.00,,---,0.00,VWS V14.00,2013-09-03 00:09:00,
2013-09-02 18:14:00,84.5,56.8,29.78,SE,133,0.0,0.0,39,0.00,,---,0.00,VWS V14.00,2013-09-03 00:14:00,
2013-09-02 18:19:00,84.5,54.6,29.78,SSE,152,0.0,0.0,36,0.00,,---,0.00,VWS V14.00,2013-09-03 00:19:00,
2013-09-02 18:24:00,84.5,55.4,29.78,SE,140,0.0,1.0,37,0.00,,---,0.00,VWS V14.00,2013-09-03 00:24:00,
2013-09-02 18:29:00,84.5,55.4,29.78,SE,140,0.0,0.0,37,0.00,,---,0.00,VWS V14.00,2013-09-03 00:29:00,
2013-09-02 18:34:00,84.1,55.8,29.78,SE,138,0.0,0.0,38,0.00,,---,0.00,VWS V14.00,2013-09-03 00:34:00,
2013-09-02 18:39:00,83.3,55.8,29.78,SE,138,0.0,0.0,39,0.00,,---,0.00,VWS V14.00,2013-09-03 00:39:00,
2013-09-02 18:44:00,82.8,54.6,29.79,South,169,0.0,4.0,38,0.00,,---,0.00,VWS V14.00,2013-09-03 00:44:00,
2013-09-02 18:49:00,82.7,55.2,29.79,South,169,0.0,1.0,39,0.00,,---,0.00,VWS V14.00,2013-09-03 00:49:00,
2013-09-02 18:54:00,82.7,55.2,29.79,SSE,168,0.0,0.0,39,0.00,,---,0.00,VWS V14.00,2013-09-03 00:54:00,
2013-09-02 18:59:00,82.6,55.9,29.78,SSE,167,0.0,0.0,40,0.00,,---,0.00,VWS V14.00,2013-09-03 00:59:00,
2013-09-02 19:04:00,82.3,55.6,29.78,SSE,167,0.0,0.0,40,0.00,,---,0.00,VWS V14.00,2013-09-03 01:04:00,
2013-09-02 19:09:00,82.2,55.5,29.78,SSE,167,0.0,0.0,40,0.00,,---,0.00,VWS V14.00,2013-09-03 01:09:00,
2013-09-02 19:14:00,82.0,55.3,29.78,SSE,167,0.0,0.0,40,0.00,,---,0.00,VWS V14.00,2013-09-03 01:14:00,
2013-09-02 19:19:00,81.9,55.9,29.78,SSE,167,0.0,0.0,41,0.00,,---,0.00,VWS V14.00,2013-09-03 01:19:00,
2013-09-02 19:24:00,81.6,55.6,29.78,SSE,167,0.0,0.0,41,0.00,,---,0.00,VWS V14.00,2013-09-03 01:24:00,
2013-09-02 19:29:00,81.1,55.2,29.79,South,187,0.0,5.0,41,0.00,,---,0.00,VWS V14.00,2013-09-03 01:29:00,
2013-09-02 19:34:00,80.8,55.6,29.79,South,187,0.0,0.0,42,0.00,,---,0.00,VWS V14.00,2013-09-03 01:34:00,
2013-09-02 19:39:00,80.6,55.4,29.80,SSW,192,0.0,0.0,42,0.00,,---,0.00,VWS V14.00,2013-09-03 01:39:00,
2013-09-02 19:44:00,80.5,56.0,29.80,SSW,192,0.0,1.0,43,0.00,,---,0.00,VWS V14.00,2013-09-03 01:44:00,
2013-09-02 19:49:00,80.3,56.4,29.80,SSW,192,0.0,0.0,44,0.00,,---,0.00,VWS V14.00,2013-09-03 01:49:00,
2013-09-02 19:54:00,80.1,56.2,29.80,South,191,0.0,0.0,44,0.00,,---,0.00,VWS V14.00,2013-09-03 01:54:00,
2013-09-02 19:59:00,79.8,56.0,29.80,SSW,209,0.0,0.0,44,0.00,,---,0.00,VWS V14.00,2013-09-03 01:59:00,
2013-09-02 20:04:00,79.5,55.7,29.75,SSW,209,0.0,0.0,44,0.00,,---,0.00,VWS V14.00,2013-09-03 02:04:00,
2013-09-02 20:09:00,79.3,55.5,29.76,South,172,0.0,0.0,44,0.00,,---,0.00,VWS V14.00,2013-09-03 02:09:00,
2013-09-02 20:14:00,79.1,55.3,29.76,South,172,0.0,0.0,44,0.00,,---,0.00,VWS V14.00,2013-09-03 02:14:00,
2013-09-02 20:19:00,78.9,55.8,29.76,South,172,0.0,0.0,45,0.00,,---,0.00,VWS V14.00,2013-09-03 02:19:00,
2013-09-02 20:24:00,78.7,55.6,29.76,South,172,0.0,0.0,45,0.00,,---,0.00,VWS V14.00,2013-09-03 02:24:00,
2013-09-02 20:29:00,78.5,55.4,29.77,South,172,0.0,0.0,45,0.00,,---,0.00,VWS V14.00,2013-09-03 02:29:00,
2013-09-02 20:34:00,78.2,55.1,29.78,South,172,0.0,1.0,45,0.00,,---,0.00,VWS V14.00,2013-09-03 02:34:00,
2013-09-02 20:39:00,78.0,55.0,29.78,South,172,0.0,0.0,45,0.00,,---,0.00,VWS V14.00,2013-09-03 02:39:00,
2013-09-02 20:44:00,77.9,55.5,29.78,South,172,0.0,1.0,46,0.00,,---,0.00,VWS V14.00,2013-09-03 02:44:00,
2013-09-02 20:50:00,77.7,54.7,29.78,South,172,0.0,0.0,45,0.00,,---,0.00,VWS V14.00,2013-09-03 02:50:00,
2013-09-02 20:55:00,77.5,54.5,29.78,South,172,0.0,0.0,45,0.00,,---,0.00,VWS V14.00,2013-09-03 02:55:00,
2013-09-02 21:00:00,77.4,55.0,29.78,South,172,0.0,0.0,46,0.00,,---,0.00,VWS V14.00,2013-09-03 03:00:00,
2013-09-02 21:05:00,77.2,54.8,29.77,South,172,0.0,0.0,46,0.00,,---,0.00,VWS V14.00,2013-09-03 03:05:00,
2013-09-02 21:10:00,76.9,54.6,29.77,South,172,0.0,0.0,46,0.00,,---,0.00,VWS V14.00,2013-09-03 03:10:00,
2013-09-02 21:15:00,76.7,54.4,29.77,South,172,0.0,0.0,46,0.00,,---,0.00,VWS V14.00,2013-09-03 03:15:00,
2013-09-02 21:20:00,76.8,53.9,29.77,South,172,0.0,0.0,45,0.00,,---,0.00,VWS V14.00,2013-09-03 03:20:00,
2013-09-02 21:26:00,76.8,53.9,29.77,South,172,0.0,0.0,45,0.00,,---,0.00,VWS V14.00,2013-09-03 03:26:00,
2013-09-02 21:31:00,77.0,54.1,29.77,South,174,0.0,0.0,45,0.00,,---,0.00,VWS V14.00,2013-09-03 03:31:00,
2013-09-02 21:36:00,77.1,54.2,29.77,South,175,0.0,0.0,45,0.00,,---,0.00,VWS V14.00,2013-09-03 03:36:00,
2013-09-02 21:42:00,77.3,53.7,29.78,SSW,202,0.0,2.0,44,0.00,,---,0.00,VWS V14.00,2013-09-03 03:42:00,
2013-09-02 21:47:00,77.3,54.3,29.78,SSW,202,0.0,0.0,45,0.00,,---,0.00,VWS V14.00,2013-09-03 03:47:00,
2013-09-02 21:52:00,77.2,54.2,29.78,SSW,202,0.0,0.0,45,0.00,,---,0.00,VWS V14.00,2013-09-03 03:52:00,
2013-09-02 21:57:00,77.1,54.8,29.78,SSW,199,2.0,2.0,46,0.00,,---,0.00,VWS V14.00,2013-09-03 03:57:00,
2013-09-02 22:01:00,77.0,54.7,29.78,SSW,200,0.0,2.0,46,0.00,,---,0.00,VWS V14.00,2013-09-03 04:01:00,
2013-09-02 22:02:00,76.9,54.6,29.76,SSW,200,0.0,2.0,46,0.00,,---,0.00,VWS V14.00,2013-09-03 04:02:00,
2013-09-02 22:05:00,76.9,54.6,29.76,SSW,199,0.0,0.0,46,0.00,,---,0.00,VWS V14.00,2013-09-03 04:05:00,
2013-09-02 22:06:00,76.9,54.6,29.76,SSW,200,0.0,0.0,46,0.00,,---,0.00,VWS V14.00,2013-09-03 04:06:00,
2013-09-02 22:09:00,76.8,54.5,29.76,SSW,200,0.0,0.0,46,0.00,,---,0.00,VWS V14.00,2013-09-03 04:09:00,
2013-09-02 22:12:00,76.8,54.5,29.76,SSW,199,0.0,0.0,46,0.00,,---,0.00,VWS V14.00,2013-09-03 04:12:00,
2013-09-02 22:17:00,76.6,54.9,29.76,SSW,200,0.0,0.0,47,0.00,,---,0.00,VWS V14.00,2013-09-03 04:17:00,
2013-09-02 22:22:00,76.5,54.8,29.76,SSW,200,0.0,0.0,47,0.00,,---,0.00,VWS V14.00,2013-09-03 04:22:00,
2013-09-02 22:28:00,76.3,54.6,29.76,SSW,200,0.0,0.0,47,0.00,,---,0.00,VWS V14.00,2013-09-03 04:28:00,
2013-09-02 22:33:00,76.1,55.0,29.76,SSW,200,0.0,0.0,48,0.00,,---,0.00,VWS V14.00,2013-09-03 04:33:00,
2013-09-02 22:38:00,75.6,55.7,29.75,SSW,200,0.0,0.0,50,0.00,,---,0.00,VWS V14.00,2013-09-03 04:38:00,
2013-09-02 22:43:00,74.9,55.6,29.77,SSW,200,0.0,0.0,51,0.00,,---,0.00,VWS V14.00,2013-09-03 04:43:00,
2013-09-02 22:49:00,74.6,55.3,29.77,SSW,200,0.0,0.0,51,0.00,,---,0.00,VWS V14.00,2013-09-03 04:49:00,
2013-09-02 22:54:00,74.4,55.7,29.76,SSW,199,0.0,0.0,52,0.00,,---,0.00,VWS V14.00,2013-09-03 04:54:00,
2013-09-02 22:59:00,74.2,55.5,29.77,SSW,199,0.0,0.0,52,0.00,,---,0.00,VWS V14.00,2013-09-03 04:59:00,
2013-09-02 23:04:00,73.9,55.2,29.76,SSW,199,0.0,0.0,52,0.00,,---,0.00,VWS V14.00,2013-09-03 05:04:00,
2013-09-02 23:09:00,73.7,55.5,29.76,SSW,200,0.0,1.0,53,0.00,,---,0.00,VWS V14.00,2013-09-03 05:09:00,
2013-09-02 23:14:00,73.2,55.6,29.76,SSW,200,0.0,2.0,54,0.00,,---,0.00,VWS V14.00,2013-09-03 05:14:00,
2013-09-02 23:19:00,72.8,55.2,29.77,SSW,199,0.0,0.0,54,0.00,,---,0.00,VWS V14.00,2013-09-03 05:19:00,
2013-09-02 23:24:00,72.5,55.4,29.77,SSW,200,0.0,0.0,55,0.00,,---,0.00,VWS V14.00,2013-09-03 05:24:00,
2013-09-02 23:29:00,72.4,54.8,29.77,SSW,200,0.0,1.0,54,0.00,,---,0.00,VWS V14.00,2013-09-03 05:29:00,
2013-09-02 23:34:00,72.3,54.7,29.77,SSW,200,0.0,0.0,54,0.00,,---,0.00,VWS V14.00,2013-09-03 05:34:00,
2013-09-02 23:39:00,72.2,55.2,29.77,SSW,199,0.0,0.0,55,0.00,,---,0.00,VWS V14.00,2013-09-03 05:39:00,
2013-09-02 23:44:00,72.3,54.7,29.77,SSW,200,0.0,2.0,54,0.00,,---,0.00,VWS V14.00,2013-09-03 05:44:00,
2013-09-02 23:49:00,72.5,54.4,29.77,SSW,200,0.0,2.0,53,0.00,,---,0.00,VWS V14.00,2013-09-03 05:49:00,
2013-09-02 23:55:00,72.7,54.1,29.77,SSW,200,0.0,0.0,52,0.00,,---,0.00,VWS V14.00,2013-09-03 05:55:00,